Regional Weather Roundup
Issued by NWS

Home | Current Version | Previous Version | Graphics & Text | Print | Product List | Glossary Off
Versions: 1 2 3 4 5 6 7 8 9 10 11 12 13 14 15 16 17 18 19 20 21 22 23 24 25 26 27 28 29 30 31 32 33 34 35 36 37 38 39 40 41 42 43 44 45 46 47 48 49 50

000
ASUS43 KDTX 281810
RWRMI
MICHIGAN HOURLY REGIONAL WEATHER ROUNDUP
NATIONAL WEATHER SERVICE DETROIT/PONTIAC MI
200 PM EDT THU APR 28 2016

NOTE: "FAIR" INDICATES FEW OR NO CLOUDS BELOW 12,000 FEET WITH NO
SIGNIFICANT WEATHER AND/OR OBSTRUCTION TO VISIBILITY.

MIZ047>049-052>055-059>063-066>070-074>076-081>083-281900-
SOUTHEAST LOWER MICHIGAN

CITY           SKY/WX    TMP DP  RH WIND       PRES   REMARKS
ADRIAN         CLOUDY    46  38  73 E14       29.95R
6HR MIN TEMP:  40; 6HR MAX TEMP:  46;

ALMA           LGT RAIN  42  32  67 E13G20    30.02S
ANN ARBOR      LGT RAIN  45  35  68 E14G21    29.96S
BAD AXE        CLOUDY    44  30  58 NE8       30.04F
CARO           CLOUDY    49  25  40 E10       30.00S
DETROIT CITY   CLOUDY    45  31  58 NE12      29.98F
6HR MIN TEMP:  40; 6HR MAX TEMP:  46; 6HR PCP:  0.04;

DETROIT        LGT RAIN  48  32  53 NE13G18   29.97F
6HR MIN TEMP:  42; 6HR MAX TEMP:  48; 6HR PCP:  0.07;

FLINT          CLOUDY    49  30  48 E10       29.99S
6HR MIN TEMP:  43; 6HR MAX TEMP:  50; 6HR PCP:  0.04;

GROSSE ILE     CLOUDY    46  34  61 E10G17    29.95S
HILLSDALE      CLOUDY    46  38  73 E14G23    29.92S
6HR MIN TEMP:  38; 6HR MAX TEMP:  46;

HOWELL         LGT RAIN  45  34  66 E6        29.98R

CITY           SKY/WX    TMP DP  RH WIND       PRES   REMARKS
JACKSON        CLOUDY    44  50 100 NE9       29.96R
6HR MIN TEMP:  38; 6HR MAX TEMP:  44; 6HR PCP:  0.18;

LAMBERTVILLE   CLOUDY    48  38  70 E8G18     29.95S
6HR MIN TEMP:  44; 6HR MAX TEMP:  48;

LANSING        LGT RAIN  42  38  85 NE8       30.00R
6HR MIN TEMP:  38; 6HR MAX TEMP:  42; 6HR PCP:  0.21;

LAPEER         CLOUDY    46  25  44 E7        30.00S
6HR MIN TEMP:  40; 6HR MAX TEMP:  46;

MASON          RAIN      44  38  82 CALM      29.98R
MONROE         DRIZZLE   44  38  78 E7G18     29.95S
6HR MIN TEMP:  41; 6HR MAX TEMP:  45; 6HR PCP:  0.08;

MT. CLEMENS    PTSUNNY   47  32  54 E8        29.98F
6HR MIN TEMP:  41; 6HR MAX TEMP:  48; 6HR PCP:  0.04;

PONTIAC        LGT RAIN  45  28  51 E10       29.97S
6HR MIN TEMP:  39; 6HR MAX TEMP:  45; 6HR PCP:  0.01;

PORT HOPE        N/A     40  34  79 NE13      30.04S WCI  32
6HR MIN TEMP:  39; 6HR MAX TEMP:  41;

PORT HURON     CLOUDY    50  25  37 E8        29.99F
TRI CITIES     LGT RAIN  47  27  45 E10       30.03R
6HR MIN TEMP:  44; 6HR MAX TEMP:  48; 6HR PCP: TRACE;

MIDLAND        CLOUDY    45  33  62 NE13      30.03R
6HR MIN TEMP:  42; 6HR MAX TEMP:  46;

TROY           LGT RAIN  46  30  53 E9        30.00S
SAGINAW HB     LGT RAIN  45  30  57 E10G16    30.01S
$$
MIZ043>046-050>051-056>058-064>065-071>073-077>080-281900-
SOUTHWEST LOWER MICHIGAN

CITY           SKY/WX    TMP DP  RH WIND       PRES   REMARKS
BATTLE CREEK   CLOUDY    45  39  79 E15       29.94F
6HR MIN TEMP:  37; 6HR MAX TEMP:  45; 6HR PCP:  0.14;

BENTON HARBOR  CLOUDY    50  41  71 E8        29.91S
6HR MIN TEMP:  43; 6HR MAX TEMP:  50; 6HR PCP: TRACE;

BIG RAPIDS     RAIN      39  34  80 E7        30.02R WCI  34
6HR MIN TEMP:  39; 6HR MAX TEMP:  43; 6HR PCP:  0.07;

COLDWATER      CLOUDY    48  39  71 E10       29.93S
6HR MIN TEMP:  38; 6HR MAX TEMP:  49;

FREMONT        LGT RAIN  40  37  87 E7        30.00F
HOLLAND        CLOUDY    42  38  85 E13       29.96S
6HR MIN TEMP:  37; 6HR MAX TEMP:  42; 6HR PCP:  0.23;

GRAND RAPIDS   LGT RAIN  41  38  89 E12       29.97F
6HR MIN TEMP:  37; 6HR MAX TEMP:  41; 6HR PCP:  0.40;

IONIA          LGT RAIN  39  36  89 NE10      29.97F WCI  33
6HR MIN TEMP:  36; 6HR MAX TEMP:  39; 6HR PCP:  0.27;

KALAMAZOO      CLOUDY    46  39  76 E9G18     29.93F
6HR MIN TEMP:  41; 6HR MAX TEMP:  46; 6HR PCP:  0.01;

LUDINGTON      LGT RAIN  40  36  84 E13       30.04S WCI  33
6HR MIN TEMP:  40; 6HR MAX TEMP:  45; 6HR PCP:  0.05;

MARSHALL       CLOUDY    45  40  82 NE8       29.94F
6HR MIN TEMP:  37; 6HR MAX TEMP:  45; 6HR PCP:  0.03;

MOUNT PLEASANT MIX PCPN  42  35  76 E5        30.02R
6HR MIN TEMP:  40; 6HR MAX TEMP:  45; 6HR PCP:  0.05;

MUSKEGON       CLOUDY    40  35  83 NE14      29.99F WCI  32
6HR MIN TEMP:  37; 6HR MAX TEMP:  40; 6HR PCP:  0.41;

SOUTH HAVEN    CLOUDY    46  41  82 E7        29.93S
$$
MIZ016>042-281900-
NORTHERN LOWER MICHIGAN

CITY           SKY/WX    TMP DP  RH WIND       PRES   REMARKS
ALPENA         PTSUNNY   44  29  55 E10       30.10F
6HR MIN TEMP:  38; 6HR MAX TEMP:  45;

BEAVER ISLAND  MOSUNNY   45  31  58 NE10G18   30.10S
6HR MIN TEMP:  38; 6HR MAX TEMP:  45;

BELLAIRE       CLOUDY    54  23  30 E8        30.04S
6HR MIN TEMP:  40; 6HR MAX TEMP:  54;

CADILLAC       CLOUDY    46  23  41 E12G17    30.01R
CHARLEVOIX     CLOUDY    50  24  37 E7        30.08F
FRANKFORT      CLOUDY    51  26  36 SE7       30.03S
GAYLORD        CLOUDY    49  25  39 VRB7      30.04S
6HR MIN TEMP:  35; 6HR MAX TEMP:  49;

GRAYLING       CLOUDY    50  23  35 E13       30.04S
HARBOR SPRINGS CLOUDY    49  27  42 E12G18    30.07S
HOUGHTON LAKE  CLOUDY    47  22  37 E14       30.03S
6HR MIN TEMP:  36; 6HR MAX TEMP:  47;

MANISTEE       CLOUDY    45  30  57 E5        30.05R
OSCODA         CLOUDY    43  31  62 NE15      30.07F
6HR MIN TEMP:  40; 6HR MAX TEMP:  43;

PELLSTON       CLOUDY    49  28  44 SE10G18   30.08F
6HR MIN TEMP:  39; 6HR MAX TEMP:  50;

ROGERS CITY    PTSUNNY   40  28  61 E13       30.12F WCI  33
TRAVERSE CITY  CLOUDY    52  24  33 E10       30.02F
6HR MIN TEMP:  41; 6HR MAX TEMP:  52;

$$
MIZ007>008-015-281900-
EASTERN UPPER MICHIGAN

CITY           SKY/WX    TMP DP  RH WIND       PRES   REMARKS
KINROSS          N/A     48  23  37 E6        30.10S
6HR MIN TEMP:  36; 6HR MAX TEMP:  48;

MACKINAC ISLAN MOSUNNY   38  28  66 E9G18     30.11S WCI  32
6HR MIN TEMP:  38; 6HR MAX TEMP:  40;

NEWBERRY       SUNNY     49  26  39 SE5       30.08S
6HR MIN TEMP:  33; 6HR MAX TEMP:  51;

S. S. MARIE    SUNNY     50  25  37 VRB6      30.09F
6HR MIN TEMP:  37; 6HR MAX TEMP:  50;

MUNISING         N/A     40  32  73 N12       30.10S WCI  33
6HR MIN TEMP:  37; 6HR MAX TEMP:  48;

$$
MIZ004>006-011>014-085-281900-
CENTRAL UPPER MICHIGAN

CITY           SKY/WX    TMP DP  RH WIND       PRES   REMARKS
MANISTIQUE     PTSUNNY   47  26  43 E14G22    30.09F
6HR MIN TEMP:  36; 6HR MAX TEMP:  48;

ESCANABA       CLOUDY    48  27  43 E13       30.09S
6HR MIN TEMP:  37; 6HR MAX TEMP:  48;

MENOMINEE      CLOUDY    45  28  53 E17       30.07S
6HR MIN TEMP:  37; 6HR MAX TEMP:  45;

SAWYER-GWINN   SUNNY     46  27  46 NE10      30.10R
$$
MIZ001>003-009>011-084-281900-
WESTERN UPPER MICHIGAN

CITY           SKY/WX    TMP DP  RH WIND       PRES   REMARKS
IRON MOUNTAIN  MOSUNNY   50  20  30 E10G20    30.05S
6HR MIN TEMP:  38; 6HR MAX TEMP:  50;

HOUGHTON       MOSUNNY   45  24  43 E14       30.11S
6HR MIN TEMP:  36; 6HR MAX TEMP:  45;

COPPER HARBOR    N/A     41  32  70 E12G18    30.15S
6HR MIN TEMP:  38; 6HR MAX TEMP:  41;

IRONWOOD       PTSUNNY   50  23  34 NW5       30.03S
6HR MIN TEMP:  36; 6HR MAX TEMP:  50;

$$

ABBREVIATIONS USED IN REMARKS
   TC - TEMPERATURE IN CELSIUS
  WCI - WIND CHILL INDEX
   HX - HEAT INDEX
  VSB - VISIBILITY





USA.gov is the U.S. government's official web portal to all federal, state and local government web resources and services.